Regional Weather Roundup
Issued by NWS

Home | Current Version | Previous Version | Text Only | Print | Product List | Glossary Off
Versions: 1 2 3 4 5 6 7 8 9 10 11 12 13 14 15 16 17 18 19 20 21 22 23 24 25 26 27 28 29 30 31 32 33 34 35 36 37 38 39 40 41 42 43 44 45 46 47 48 49 50

000
ASUS43 KOAX 302010
RWRNE

WEATHER ROUNDUP FOR NEBRASKA
NATIONAL WEATHER SERVICE OMAHA NE
300 PM CDT THU JUL 30 2015

NOTES: SATELLITE DATA IS BEING USED TO AUGMENT CLOUD COVER ABOVE
       12000 FEET.
       "FAIR" INDICATES FEW OR NO CLOUDS BELOW 12,000 FEET WITH NO
       SIGNIFICANT WEATHER AND/OR OBSTRUCTIONS TO VISIBILITY.

  * THESE STATIONS DO NOT REPORT WEATHER SUCH AS RAIN...SNOW OR FOG.

NEZ001>004-019>022-054>056-302100-
NEBRASKA PANHANDLE

CITY           SKY/WX    TMP DP  RH WIND       PRES   REMARKS
SCOTTSBLUFF    SUNNY     88  46  23 E9        30.27F
ALLIANCE       SUNNY     87  53  31 SE8       30.27S
CHADRON        SUNNY     87  43  21 VRB6      30.25F
KIMBALL        SUNNY     84  54  35 N5        30.30F
SIDNEY         MOSUNNY   85  58  39 VRB3      30.28F
$$

NEZ057>060-069>072-079>082-302100-
SOUTHWEST NEBRASKA

CITY           SKY/WX    TMP DP  RH WIND       PRES   REMARKS
NORTH PLATTE   SUNNY     88  58  36 S6G16     30.22F
IMPERIAL       MOSUNNY   91  57  31 S12       30.24F
LEXINGTON      SUNNY     88  62  42 SW10      30.22F
MCCOOK         SUNNY     89  60  37 VRB5      30.22F
OGALLALA       MOSUNNY   89  59  36 S7        30.24S
$$

NEZ005>010-023>029-035>040-094-302100-
NORTH CENTRAL NEBRASKA

CITY           SKY/WX    TMP DP  RH WIND       PRES   REMARKS
VALENTINE      SUNNY     91  41  17 VRB6      30.20F
AINSWORTH      MOSUNNY   88  53  29 N6        30.20F
BROKEN BOW     SUNNY     88  62  41 SW8       30.22F
O`NEILL        SUNNY     89  58  35 W7        30.18F
ORD            SUNNY     88  62  41 SW10      30.19F
THEDFORD       PTSUNNY   89  59  35 NW3       30.22F
$$

NEZ041-046>049-061>064-073>077-083>087-302100-
SOUTH CENTRAL NEBRASKA

CITY           SKY/WX    TMP DP  RH WIND       PRES   REMARKS
GRAND ISLAND   SUNNY     87  60  40 VRB5      30.21F
AURORA         SUNNY     85  64  49 SW6       30.20F
HASTINGS       SUNNY     85  65  51 S6        30.21F
HEBRON         SUNNY     86  55  34 SW7       30.19F
HOLDREGE       SUNNY     85  62  45 S7        30.22F
KEARNEY *      SUNNY     84  64  51 SW7       30.21F
YORK           SUNNY     86  61  42 SW9       30.21S
$$

NEZ011>018-030>034-042>045-302100-
NORTHEAST NEBRASKA

CITY           SKY/WX    TMP DP  RH WIND       PRES   REMARKS
NORFOLK        SUNNY     87  60  40 SW14      30.17F
ALBION         MOSUNNY   87  56  34 S8        30.19F
BLAIR          SUNNY     83  63  50 W6        30.19F
COLUMBUS *     SUNNY     86  57  37 SW5       30.19S
FREMONT        SUNNY     86  62  44 W5        30.19F
TEKAMAH        SUNNY     87  67  51 W8        30.17F HX  90
WAYNE          SUNNY     87  62  43 SW15      30.17S
$$

NEZ050>053-065>068-078-088>093-302100-
SOUTHEAST NEBRASKA

CITY           SKY/WX    TMP DP  RH WIND       PRES   REMARKS
LINCOLN        SUNNY     90  55  30 S13       30.19F
OMAHA EPPLEY   MOSUNNY   89  59  36 SW7       30.17F
BEATRICE       SUNNY     86  61  43 SW12G18   30.19F
FALLS CITY     SUNNY     87  61  41 S9        30.18F
NEBRASKA CITY  SUNNY     85  53  32 SW7       30.19F
PLATTSMOUTH    SUNNY     87  57  35 SW5       30.19F
$$

NEZ044-045-051>053-067-302100-
OMAHA AREA

CITY           SKY/WX    TMP DP  RH WIND       PRES   REMARKS
OMAHA EPPLEY   MOSUNNY   89  59  36 SW7       30.17F
BLAIR          SUNNY     83  63  50 W6        30.19F
FREMONT        SUNNY     86  62  44 W5        30.19F
MILLARD        SUNNY     88  62  41 SW6       30.18S
OFFUTT AFB     SUNNY     88  60  39 W9        30.17F
PLATTSMOUTH    SUNNY     87  57  35 SW5       30.19F
WAHOO          FAIR      87  58  38 W10       30.19S
$$


USA.gov is the U.S. government's official web portal to all federal, state and local government web resources and services.